EDW12R LKPR-LSZH

Flight info

Callsign EDW12R
Flight time N/A
Altitude 32000
Route BALTU8E BALTU DCT DONAD DCT OKG L984 KULOK Z715 ANELA N869 TEDGO/N0487F350 T724 RILAX RILAX2A
Aircraft A359/H-VGDW/C

Departure

Time 2026-05-01 15:30
Airport Václav Havel Airport Prague (LKPR)

Arrival

Time N/A
Airport Zürich Airport (LSZH)
Time Latitude Longitude Altitude Speed Heading
2026-05-01 15:02 50.10710 14.26373 1177 ft 0 kts 226°
2026-05-01 15:19 50.10717 14.26383 1185 ft 2 kts 225°
2026-05-01 15:19 50.10739 14.26422 1178 ft 2 kts 234°
2026-05-01 15:19 50.10747 14.26444 1181 ft 2 kts 252°
2026-05-01 15:20 50.10743 14.26480 1184 ft 0 kts 305°
2026-05-01 15:22 50.10755 14.26454 1184 ft 10 kts 305°
2026-05-01 15:22 50.10803 14.26348 1176 ft 13 kts 306°
2026-05-01 15:23 50.10824 14.26289 1175 ft 0 kts 293°
2026-05-01 15:24 50.10831 14.26257 1175 ft 5 kts 285°
2026-05-01 15:24 50.10821 14.26248 1177 ft 7 kts 214°
2026-05-01 15:24 50.10790 14.26220 1175 ft 12 kts 210°
2026-05-01 15:24 50.10706 14.26146 1178 ft 16 kts 210°
2026-05-01 15:25 50.10606 14.26056 1189 ft 15 kts 213°
2026-05-01 15:25 50.10524 14.25934 1192 ft 17 kts 235°
2026-05-01 15:25 50.10482 14.25705 1189 ft 32 kts 259°
2026-05-01 15:25 50.10436 14.25355 1179 ft 34 kts 258°
2026-05-01 15:26 50.10392 14.25001 1180 ft 33 kts 258°
2026-05-01 15:26 50.10352 14.24661 1179 ft 31 kts 259°
2026-05-01 15:26 50.10313 14.24338 1187 ft 29 kts 258°
2026-05-01 15:26 50.10274 14.24046 1190 ft 27 kts 259°
2026-05-01 15:27 50.10229 14.23665 1198 ft 44 kts 258°
2026-05-01 15:27 50.10137 14.23235 1209 ft 39 kts 247°
2026-05-01 15:27 50.10044 14.22876 1216 ft 26 kts 264°
2026-05-01 15:28 50.10082 14.22749 1215 ft 7 kts 328°
2026-05-01 15:28 50.10128 14.22721 1214 ft 7 kts 354°
2026-05-01 15:28 50.10178 14.22734 1214 ft 7 kts 25°
2026-05-01 15:29 50.10236 14.22805 1212 ft 0 kts 64°
2026-05-01 15:29 50.10286 14.22966 1209 ft 51 kts 65°
2026-05-01 15:29 50.11015 14.25378 1385 ft 170 kts 64°
2026-05-01 15:30 50.12103 14.28876 2704 ft 203 kts 62°
2026-05-01 15:31 50.14512 14.36592 6528 ft 196 kts 64°
2026-05-01 15:31 50.15744 14.40807 7534 ft 235 kts 65°
2026-05-01 15:32 50.17201 14.45905 8496 ft 281 kts 65°
2026-05-01 15:32 50.18913 14.51875 9460 ft 320 kts 65°
2026-05-01 15:33 50.22435 14.61535 10827 ft 356 kts 44°
2026-05-01 15:34 50.29556 14.64159 12152 ft 383 kts 345°